Location: Anjeux
(47.8815°N, 6.2076°E)
Time: 13:41:16
(UTC+00:00)

Cosmos 1500 Rocket - Pass Details

Date: 05 March 2021
Orbit: 604 x 630 km, 82.5° (Epoch: 17 April)

Event Time Altitude Azimuth Distance (km) Brightness Sun altitude
Rises 03:56:28 0° 349° (NNW) 2,878 7.1 -22.7°
Reaches altitude 10° 03:58:41 10° 347° (NNW) 1,972 6.2 -22.3°
Maximum altitude 04:03:02 74° 263° (W) 641 3.4 -21.6°
Drops below altitude 10° 04:07:23 10° 179° (S) 1,970 6.0 -20.9°
Sets 04:09:36 0° 177° (S) 2,875 6.9 -20.6°
